STARLINK-11630, 63111

Orbit data source: Space-Track

STARLINK-11630, 63111 is a payload satellite owned by SpaceX/Seattle (US) in LEO that was launched on Thu, 27 Feb 2025 UTC via an FALCON 9 launch vehicle from the Air Force Eastern Test Range (AFETR). Payload-class satellites include a variety of spacecraft equipped with specific instruments for various scientific and technological missions. These include communications satellites like Starlink; space stations such as the ISS; scientific satellites like the Hubble; Earth observation satellites from companies like Planet Labs, Umbra, and HawkEye 360; GPS; miniature CubeSats for education and research; and military/defense satellites.

Loading next visibility...
Identifier
63111, 2025-039H
Orbit
LEO
Country
Flag of USUS
Related business
Manufacturer
SpaceX/Seattle
Mission
Operational Commercial Communications
Bus & Motor
STARLINK V2MD, Unknown motor
Mass
960 kg wet, ~910 kg dry
Launch date (UTC)
2025-02-27 (8 months ago)
Launch vehicle
FALCON 9
Launch site
Air Force Eastern Test Range (AFETR)
Object type
Payload
Rocket body
Debris
Shape & HBR
Box + 2 Pan, 18.1 m
Radar Cross Section
36.964 m², Large (>1 m²)

Expand to show TLE details & history
Last TLE update: 1 day ago

TLE from 1 day ago
0 STARLINK-11630
1 63111U 25039H   25306.40523486  .00314909  00000-0  23530-2 0  9990
2 63111  42.9978 284.3649 0000978 230.3149 129.7632 15.70969242 39596
Epoch: 2025-11-02T09:43Z
TLE epoch observation values (Epoch: 2025-11-02T09:43:32.291Z)
Latitude
-0.00007°
Longitude
96.55884°
Altitude
356.318 km
Speed
7.697 km/s
True Right ascension
18h 57m 27s
True Declination
0° 00' 00"
Sunlit
Object was in daylight at epoch
Visualization orbit readout
Latitude
Unknown
Longitude
Unknown
Altitude
Unknown
Speed
Unknown
Apparent Right ascension
Unknown
Apparent Declination
Unknown
Sunlit
N/A
Visualization observer readout
Local Sidereal Time
14:04:58
Azimuth
Unknown
Elevation
Unknown
Doppler factor
Unknown
Orbital elements
Apogee altitude
358.767 km
Perigee altitude
357.449 km
Semi-major axis
6,736.245 km
Eccentricity
0.0001
Inclination
42.9978°
RAAN
284.3649°
Arg. of periapsis
230.3149°
True anomaly
129.77181°
Mean anomaly
129.7632°
Eccentric anomaly
129.76751°
Mean motion
3.92569 °/min
Orbital period
91.7 mins
BSTAR
0.002353
Loading maneuver chart data...
Computing Atmospheric mass density...
Loading historical data...
Loading historical data...
Loading historical data...
Loading historical data...
Loading historical data...
Loading historical data...
Loading historical data...

Documentation

Showing up to 5 results
|